Year,Month,Day,Hour,Minute,Value (Times are PST for temperature in C)
2016,08,18,00,00,20.00
2016,08,18,00,01,20.00
2016,08,18,00,02,20.00
2016,08,18,00,03,20.00
2016,08,18,00,04,20.00
2016,08,18,00,05,20.00
2016,08,18,00,06,19.90
2016,08,18,00,07,19.90
2016,08,18,00,08,19.90
2016,08,18,00,09,19.90
2016,08,18,00,10,19.90
2016,08,18,00,11,19.80
2016,08,18,00,12,19.80
2016,08,18,00,13,19.80
2016,08,18,00,14,19.80
2016,08,18,00,15,19.80
2016,08,18,00,16,19.80
2016,08,18,00,17,19.80
2016,08,18,00,18,19.80
2016,08,18,00,19,19.80
2016,08,18,00,20,19.80
2016,08,18,00,21,19.80
2016,08,18,00,22,19.80
2016,08,18,00,23,19.80
2016,08,18,00,24,19.70
2016,08,18,00,25,19.70
2016,08,18,00,26,19.70
2016,08,18,00,27,19.70
2016,08,18,00,28,19.70
2016,08,18,00,29,19.60
2016,08,18,00,30,19.60
2016,08,18,00,31,19.60
2016,08,18,00,32,19.60
2016,08,18,00,33,19.60
2016,08,18,00,34,19.60
2016,08,18,00,35,19.60
2016,08,18,00,36,19.60
2016,08,18,00,37,19.60
2016,08,18,00,38,19.60
2016,08,18,00,39,19.50
2016,08,18,00,40,19.50
2016,08,18,00,41,19.50
2016,08,18,00,42,19.50
2016,08,18,00,43,19.50
2016,08,18,00,44,19.50
2016,08,18,00,45,19.40
2016,08,18,00,46,19.40
2016,08,18,00,47,19.40
2016,08,18,00,48,19.40
2016,08,18,00,49,19.40
2016,08,18,00,50,19.40
2016,08,18,00,51,19.40
2016,08,18,00,52,19.40
2016,08,18,00,53,19.40
2016,08,18,00,54,19.30
2016,08,18,00,55,19.30
2016,08,18,00,56,19.30
2016,08,18,00,57,19.30
2016,08,18,00,58,19.20
2016,08,18,00,59,19.20
2016,08,18,01,00,19.20
2016,08,18,01,01,19.20
2016,08,18,01,02,19.10
2016,08,18,01,03,19.10
2016,08,18,01,04,19.10
2016,08,18,01,05,19.00
2016,08,18,01,06,19.00
2016,08,18,01,07,18.90
2016,08,18,01,08,18.90
2016,08,18,01,09,18.80
2016,08,18,01,10,18.80
2016,08,18,01,11,18.80
2016,08,18,01,12,18.70
2016,08,18,01,13,18.70
2016,08,18,01,14,18.70
2016,08,18,01,15,18.70
2016,08,18,01,16,18.60
2016,08,18,01,17,18.60
2016,08,18,01,18,18.60
2016,08,18,01,19,18.60
2016,08,18,01,20,18.50
2016,08,18,01,21,18.50
2016,08,18,01,22,18.40
2016,08,18,01,23,18.40
2016,08,18,01,24,18.40
2016,08,18,01,25,18.40
2016,08,18,01,26,18.40
2016,08,18,01,27,18.40
2016,08,18,01,28,18.40
2016,08,18,01,29,18.40
2016,08,18,01,30,18.40
2016,08,18,01,31,18.40
2016,08,18,01,32,18.40
2016,08,18,01,33,18.40
2016,08,18,01,34,18.40
2016,08,18,01,35,18.40
2016,08,18,01,36,18.40
2016,08,18,01,37,18.40
2016,08,18,01,38,18.40
2016,08,18,01,39,18.40
2016,08,18,01,40,18.40
2016,08,18,01,41,18.40
2016,08,18,01,42,18.40
2016,08,18,01,43,18.40
2016,08,18,01,44,18.40
2016,08,18,01,45,18.40
2016,08,18,01,46,18.40
2016,08,18,01,47,18.50
2016,08,18,01,48,18.50
2016,08,18,01,49,18.50
2016,08,18,01,50,18.40
2016,08,18,01,51,18.40
2016,08,18,01,52,18.40
2016,08,18,01,53,18.40
2016,08,18,01,54,18.40
2016,08,18,01,55,18.40
2016,08,18,01,56,18.40
2016,08,18,01,57,18.40
2016,08,18,01,58,18.40
2016,08,18,01,59,18.30
2016,08,18,02,00,18.30
2016,08,18,02,01,18.30
2016,08,18,02,02,18.20
2016,08,18,02,03,18.20
2016,08,18,02,04,18.20
2016,08,18,02,05,18.20
2016,08,18,02,06,18.20
2016,08,18,02,07,18.20
2016,08,18,02,08,18.20
2016,08,18,02,09,18.10
2016,08,18,02,10,18.10
2016,08,18,02,11,18.10
2016,08,18,02,12,18.10
2016,08,18,02,13,18.10
2016,08,18,02,14,18.10
2016,08,18,02,15,18.00
2016,08,18,02,16,18.00
2016,08,18,02,17,18.00
2016,08,18,02,18,17.90
2016,08,18,02,19,17.90
2016,08,18,02,20,17.90
2016,08,18,02,21,17.90
2016,08,18,02,22,17.90
2016,08,18,02,23,17.90
2016,08,18,02,24,17.90
2016,08,18,02,25,17.80
2016,08,18,02,26,17.80
2016,08,18,02,27,17.80
2016,08,18,02,28,17.80
2016,08,18,02,29,17.70
2016,08,18,02,30,17.70
2016,08,18,02,31,17.70
2016,08,18,02,32,17.70
2016,08,18,02,33,17.70
2016,08,18,02,34,17.70
2016,08,18,02,35,17.70
2016,08,18,02,36,17.70
2016,08,18,02,37,17.70
2016,08,18,02,38,17.70
2016,08,18,02,39,17.70
2016,08,18,02,40,17.60
2016,08,18,02,41,17.60
2016,08,18,02,42,17.60
2016,08,18,02,43,17.60
2016,08,18,02,44,17.60
2016,08,18,02,45,17.60
2016,08,18,02,46,17.60
2016,08,18,02,47,17.60
2016,08,18,02,48,17.50
2016,08,18,02,49,17.50
2016,08,18,02,50,17.50
2016,08,18,02,51,17.50
2016,08,18,02,52,17.40
2016,08,18,02,53,17.40
2016,08,18,02,54,17.40
2016,08,18,02,55,17.40
2016,08,18,02,56,17.40
2016,08,18,02,57,17.40
2016,08,18,02,58,17.30
2016,08,18,02,59,17.30
2016,08,18,03,00,17.30
2016,08,18,03,01,17.30
2016,08,18,03,02,17.30
2016,08,18,03,03,17.20
2016,08,18,03,04,17.20
2016,08,18,03,05,17.20
2016,08,18,03,06,17.20
2016,08,18,03,07,17.10
2016,08,18,03,08,17.10
2016,08,18,03,09,17.10
2016,08,18,03,10,17.10
2016,08,18,03,11,17.00
2016,08,18,03,12,17.00
2016,08,18,03,13,17.00
2016,08,18,03,14,16.90
2016,08,18,03,15,16.90
2016,08,18,03,16,16.90
2016,08,18,03,17,16.80
2016,08,18,03,18,16.80
2016,08,18,03,19,16.80
2016,08,18,03,20,16.70
2016,08,18,03,21,16.70
2016,08,18,03,22,16.60
2016,08,18,03,23,16.60
2016,08,18,03,24,16.50
2016,08,18,03,25,16.40
2016,08,18,03,26,16.40
2016,08,18,03,27,16.40
2016,08,18,03,28,16.30
2016,08,18,03,29,16.30
2016,08,18,03,30,16.20
2016,08,18,03,31,16.20
2016,08,18,03,32,16.20
2016,08,18,03,33,16.10
2016,08,18,03,34,16.10
2016,08,18,03,35,16.00
2016,08,18,03,36,16.00
2016,08,18,03,37,15.90
2016,08,18,03,38,15.90
2016,08,18,03,39,15.80
2016,08,18,03,40,15.80
2016,08,18,03,41,15.70
2016,08,18,03,42,15.70
2016,08,18,03,43,15.70
2016,08,18,03,44,15.60
2016,08,18,03,45,15.60
2016,08,18,03,46,15.50
2016,08,18,03,47,15.50
2016,08,18,03,48,15.40
2016,08,18,03,49,15.40
2016,08,18,03,50,15.30
2016,08,18,03,51,15.30
2016,08,18,03,52,15.30
2016,08,18,03,53,15.20
2016,08,18,03,54,15.20
2016,08,18,03,55,15.20
2016,08,18,03,56,15.20
2016,08,18,03,57,15.10
2016,08,18,03,58,15.10
2016,08,18,03,59,15.10
2016,08,18,04,00,15.00
2016,08,18,04,01,15.00
2016,08,18,04,02,15.00
2016,08,18,04,03,14.90
2016,08,18,04,04,14.90
2016,08,18,04,05,14.90
2016,08,18,04,06,14.90
2016,08,18,04,07,14.80
2016,08,18,04,08,14.80
2016,08,18,04,09,14.80
2016,08,18,04,10,14.80
2016,08,18,04,11,14.80
2016,08,18,04,12,14.80
2016,08,18,04,13,14.70
2016,08,18,04,14,14.70
2016,08,18,04,15,14.70
2016,08,18,04,16,14.70
2016,08,18,04,17,14.70
2016,08,18,04,18,14.70
2016,08,18,04,19,14.70
2016,08,18,04,20,14.60
2016,08,18,04,21,14.60
2016,08,18,04,22,14.60
2016,08,18,04,23,14.50
2016,08,18,04,24,14.50
2016,08,18,04,25,14.50
2016,08,18,04,26,14.40
2016,08,18,04,27,14.40
2016,08,18,04,28,14.40
2016,08,18,04,29,14.30
2016,08,18,04,30,14.30
2016,08,18,04,31,14.30
2016,08,18,04,32,14.30
2016,08,18,04,33,14.30
2016,08,18,04,34,14.20
2016,08,18,04,35,14.20
2016,08,18,04,36,14.20
2016,08,18,04,37,14.20
2016,08,18,04,38,14.20
2016,08,18,04,39,14.20
2016,08,18,04,40,14.20
2016,08,18,04,41,14.20
2016,08,18,04,42,14.20
2016,08,18,04,43,14.10
2016,08,18,04,44,14.10
2016,08,18,04,45,14.10
2016,08,18,04,46,14.10
2016,08,18,04,47,14.10
2016,08,18,04,48,14.10
2016,08,18,04,49,14.10
2016,08,18,04,50,14.00
2016,08,18,04,51,14.00
2016,08,18,04,52,14.00
2016,08,18,04,53,13.90
2016,08,18,04,54,13.90
2016,08,18,04,55,13.80
2016,08,18,04,56,13.80
2016,08,18,04,57,13.70
2016,08,18,04,58,13.70
2016,08,18,04,59,13.60
2016,08,18,05,00,13.60
2016,08,18,05,01,13.50
2016,08,18,05,02,13.50
2016,08,18,05,03,13.50
2016,08,18,05,04,13.40
2016,08,18,05,05,13.40
2016,08,18,05,06,13.40
2016,08,18,05,07,13.30
2016,08,18,05,08,13.30
2016,08,18,05,09,13.30
2016,08,18,05,10,13.20
2016,08,18,05,11,13.20
2016,08,18,05,12,13.20
2016,08,18,05,13,13.20
2016,08,18,05,14,13.10
2016,08,18,05,15,13.10
2016,08,18,05,16,13.10
2016,08,18,05,17,13.10
2016,08,18,05,18,13.10
2016,08,18,05,19,13.00
2016,08,18,05,20,13.00
2016,08,18,05,21,13.00
2016,08,18,05,22,13.00
2016,08,18,05,23,13.00
2016,08,18,05,24,13.00
2016,08,18,05,25,13.00
2016,08,18,05,26,13.00
2016,08,18,05,27,13.00
2016,08,18,05,28,13.00
2016,08,18,05,29,13.00
2016,08,18,05,30,13.00
2016,08,18,05,31,13.10
2016,08,18,05,32,13.00
2016,08,18,05,33,13.00
2016,08,18,05,34,13.00
2016,08,18,05,35,13.00
2016,08,18,05,36,13.00
2016,08,18,05,37,12.90
2016,08,18,05,38,12.90
2016,08,18,05,39,12.90
2016,08,18,05,40,12.90
2016,08,18,05,41,12.90
2016,08,18,05,42,12.90
2016,08,18,05,43,12.90
2016,08,18,05,44,12.90
2016,08,18,05,45,12.90
2016,08,18,05,46,12.90
2016,08,18,05,47,12.90
2016,08,18,05,48,12.90
2016,08,18,05,49,12.90
2016,08,18,05,50,12.90
2016,08,18,05,51,12.90
2016,08,18,05,52,12.90
2016,08,18,05,53,12.90
2016,08,18,05,54,12.90
2016,08,18,05,55,12.90
2016,08,18,05,56,12.80
2016,08,18,05,57,12.80
2016,08,18,05,58,12.80
2016,08,18,05,59,12.70
2016,08,18,06,00,12.70
2016,08,18,06,01,12.60
2016,08,18,06,02,12.60
2016,08,18,06,03,12.50
2016,08,18,06,04,12.50
2016,08,18,06,05,12.40
2016,08,18,06,06,12.40
2016,08,18,06,07,12.40
2016,08,18,06,08,12.40
2016,08,18,06,09,12.40
2016,08,18,06,10,12.40
2016,08,18,06,11,12.40
2016,08,18,06,12,12.40
2016,08,18,06,13,12.40
2016,08,18,06,14,12.40
2016,08,18,06,15,12.30
2016,08,18,06,16,12.30
2016,08,18,06,17,12.30
2016,08,18,06,18,12.30
2016,08,18,06,19,12.30
2016,08,18,06,20,12.30
2016,08,18,06,21,12.20
2016,08,18,06,22,12.20
2016,08,18,06,23,12.20
2016,08,18,06,24,12.20
2016,08,18,06,25,12.10
2016,08,18,06,26,12.10
2016,08,18,06,27,12.10
2016,08,18,06,28,12.00
2016,08,18,06,29,12.00
2016,08,18,06,30,11.90
2016,08,18,06,31,11.90
2016,08,18,06,32,11.90
2016,08,18,06,33,11.90
2016,08,18,06,34,11.90
2016,08,18,06,35,11.90
2016,08,18,06,36,11.90
2016,08,18,06,37,11.90
2016,08,18,06,38,11.90
2016,08,18,06,39,11.90
2016,08,18,06,40,11.90
2016,08,18,06,41,11.90
2016,08,18,06,42,11.90
2016,08,18,06,43,11.90
2016,08,18,06,44,11.90
2016,08,18,06,45,11.90
2016,08,18,06,46,11.90
2016,08,18,06,47,11.90
2016,08,18,06,48,11.90
2016,08,18,06,49,12.00
2016,08,18,06,50,12.00
2016,08,18,06,51,11.90
2016,08,18,06,52,11.90
2016,08,18,06,53,11.90
2016,08,18,06,54,11.90
2016,08,18,06,55,11.90
2016,08,18,06,56,11.90
2016,08,18,06,57,11.80
2016,08,18,06,58,11.80
2016,08,18,06,59,11.80
2016,08,18,07,00,11.80
2016,08,18,07,01,11.90
2016,08,18,07,02,11.90
2016,08,18,07,03,11.90
2016,08,18,07,04,11.90
2016,08,18,07,05,11.90
2016,08,18,07,06,11.90
2016,08,18,07,07,11.90
2016,08,18,07,08,11.90
2016,08,18,07,09,11.90
2016,08,18,07,10,12.00
2016,08,18,07,11,12.00
2016,08,18,07,12,12.00
2016,08,18,07,13,12.00
2016,08,18,07,14,12.10
2016,08,18,07,15,12.10
2016,08,18,07,16,12.00
2016,08,18,07,17,12.00
2016,08,18,07,18,12.00
2016,08,18,07,19,11.90
2016,08,18,07,20,11.90
2016,08,18,07,21,11.90
2016,08,18,07,22,11.90
2016,08,18,07,23,11.90
2016,08,18,07,24,11.90
2016,08,18,07,25,11.90
2016,08,18,07,26,11.90
2016,08,18,07,27,11.90
2016,08,18,07,28,11.90
2016,08,18,07,29,11.90
2016,08,18,07,30,11.90
2016,08,18,07,31,11.90
2016,08,18,07,32,11.90
2016,08,18,07,33,12.00
2016,08,18,07,34,12.00
2016,08,18,07,35,12.10
2016,08,18,07,36,12.10
2016,08,18,07,37,12.10
2016,08,18,07,38,12.20
2016,08,18,07,39,12.20
2016,08,18,07,40,12.20
2016,08,18,07,41,12.20
2016,08,18,07,42,12.30
2016,08,18,07,43,12.30
2016,08,18,07,44,12.30
2016,08,18,07,45,12.30
2016,08,18,07,46,12.30
2016,08,18,07,47,12.40
2016,08,18,07,48,12.40
2016,08,18,07,49,12.40
2016,08,18,07,50,12.50
2016,08,18,07,51,12.50
2016,08,18,07,52,12.60
2016,08,18,07,53,12.60
2016,08,18,07,54,12.70
2016,08,18,07,55,12.70
2016,08,18,07,56,12.70
2016,08,18,07,57,12.80
2016,08,18,07,58,12.80
2016,08,18,07,59,12.90
2016,08,18,08,00,12.90
2016,08,18,08,01,13.00
2016,08,18,08,02,13.10
2016,08,18,08,03,13.20
2016,08,18,08,04,13.30
2016,08,18,08,05,13.40
2016,08,18,08,06,13.60
2016,08,18,08,07,13.70
2016,08,18,08,08,13.90
2016,08,18,08,09,14.10
2016,08,18,08,10,14.20
2016,08,18,08,11,14.40
2016,08,18,08,12,14.60
2016,08,18,08,13,14.80
2016,08,18,08,14,14.90
2016,08,18,08,15,15.10
2016,08,18,08,16,15.20
2016,08,18,08,17,15.30
2016,08,18,08,18,15.40
2016,08,18,08,19,15.50
2016,08,18,08,20,15.60
2016,08,18,08,21,15.80
2016,08,18,08,22,15.80
2016,08,18,08,23,15.90
2016,08,18,08,24,16.00
2016,08,18,08,25,16.10
2016,08,18,08,26,16.20
2016,08,18,08,27,16.30
2016,08,18,08,28,16.40
2016,08,18,08,29,16.40
2016,08,18,08,30,16.50
2016,08,18,08,31,16.60
2016,08,18,08,32,16.60
2016,08,18,08,33,16.70
2016,08,18,08,34,16.80
2016,08,18,08,35,16.80
2016,08,18,08,36,16.90
2016,08,18,08,37,17.00
2016,08,18,08,38,17.00
2016,08,18,08,39,17.10
2016,08,18,08,40,17.10
2016,08,18,08,41,17.20
2016,08,18,08,42,17.20
2016,08,18,08,43,17.30
2016,08,18,08,44,17.30
2016,08,18,08,45,17.40
2016,08,18,08,46,17.50
2016,08,18,08,47,17.50
2016,08,18,08,48,17.60
2016,08,18,08,49,17.60
2016,08,18,08,50,17.70
2016,08,18,08,51,17.70
2016,08,18,08,52,17.70
2016,08,18,08,53,17.80
2016,08,18,08,54,17.80
2016,08,18,08,55,17.90
2016,08,18,08,56,17.90
2016,08,18,08,57,18.00
2016,08,18,08,58,18.00
2016,08,18,08,59,18.10
2016,08,18,09,00,18.20
2016,08,18,09,01,18.20
2016,08,18,09,02,18.20
2016,08,18,09,03,18.30
2016,08,18,09,04,18.30
2016,08,18,09,05,18.40
2016,08,18,09,06,18.40
2016,08,18,09,07,18.50
2016,08,18,09,08,18.50
2016,08,18,09,09,18.60
2016,08,18,09,10,18.60
2016,08,18,09,11,18.60
2016,08,18,09,12,18.60
2016,08,18,09,13,18.70
2016,08,18,09,14,18.70
2016,08,18,09,15,18.70
2016,08,18,09,16,18.80
2016,08,18,09,17,18.80
2016,08,18,09,18,18.90
2016,08,18,09,19,18.90
2016,08,18,09,20,19.00
2016,08,18,09,21,19.10
2016,08,18,09,22,19.20
2016,08,18,09,23,19.20
2016,08,18,09,24,19.30
2016,08,18,09,25,19.30
2016,08,18,09,26,19.40
2016,08,18,09,27,19.40
2016,08,18,09,28,19.50
2016,08,18,09,29,19.50
2016,08,18,09,30,19.60
2016,08,18,09,31,19.60
2016,08,18,09,32,19.70
2016,08,18,09,33,19.70
2016,08,18,09,34,19.70
2016,08,18,09,35,19.80
2016,08,18,09,36,19.80
2016,08,18,09,37,19.90
2016,08,18,09,38,19.90
2016,08,18,09,39,19.90
2016,08,18,09,40,20.00
2016,08,18,09,41,20.00
2016,08,18,09,42,20.10
2016,08,18,09,43,20.10
2016,08,18,09,44,20.20
2016,08,18,09,45,20.30
2016,08,18,09,46,20.40
2016,08,18,09,47,20.50
2016,08,18,09,48,20.60
2016,08,18,09,49,20.70
2016,08,18,09,50,20.80
2016,08,18,09,51,20.90
2016,08,18,09,52,21.00
2016,08,18,09,53,21.00
2016,08,18,09,54,21.10
2016,08,18,09,55,21.20
2016,08,18,09,56,21.20
2016,08,18,09,57,21.30
2016,08,18,09,58,21.30
2016,08,18,09,59,21.30
2016,08,18,10,00,21.40
2016,08,18,10,01,21.40
2016,08,18,10,02,21.50
2016,08,18,10,03,21.60
2016,08,18,10,04,21.60
2016,08,18,10,05,21.70
2016,08,18,10,06,21.80
2016,08,18,10,07,21.80
2016,08,18,10,08,21.90
2016,08,18,10,09,21.90
2016,08,18,10,10,21.90
2016,08,18,10,11,22.00
2016,08,18,10,12,22.00
2016,08,18,10,13,22.00
2016,08,18,10,14,22.10
2016,08,18,10,15,22.10
2016,08,18,10,16,22.10
2016,08,18,10,17,22.10
2016,08,18,10,18,22.10
2016,08,18,10,19,22.10
2016,08,18,10,20,22.10
2016,08,18,10,21,22.10
2016,08,18,10,22,22.10
2016,08,18,10,23,22.10
2016,08,18,10,24,22.20
2016,08,18,10,25,22.30
2016,08,18,10,26,22.30
2016,08,18,10,27,22.30
2016,08,18,10,28,22.40
2016,08,18,10,29,22.40
2016,08,18,10,30,22.50
2016,08,18,10,31,22.50
2016,08,18,10,32,22.60
2016,08,18,10,33,22.60
2016,08,18,10,34,22.70
2016,08,18,10,35,22.70
2016,08,18,10,36,22.80
2016,08,18,10,37,22.80
2016,08,18,10,38,22.80
2016,08,18,10,39,22.90
2016,08,18,10,40,22.90
2016,08,18,10,41,23.00
2016,08,18,10,42,23.00
2016,08,18,10,43,23.10
2016,08,18,10,44,23.20
2016,08,18,10,45,23.20
2016,08,18,10,46,23.30
2016,08,18,10,47,23.30
2016,08,18,10,48,23.40
2016,08,18,10,49,23.40
2016,08,18,10,50,23.40
2016,08,18,10,51,23.50
2016,08,18,10,52,23.40
2016,08,18,10,53,23.40
2016,08,18,10,54,23.40
2016,08,18,10,55,23.40
2016,08,18,10,56,23.40
2016,08,18,10,57,23.30
2016,08,18,10,58,23.40
2016,08,18,10,59,23.40
2016,08,18,11,00,23.50
2016,08,18,11,01,23.60
2016,08,18,11,02,23.60
2016,08,18,11,03,23.50
2016,08,18,11,04,23.40
2016,08,18,11,05,23.40
2016,08,18,11,06,23.40
2016,08,18,11,07,23.30
2016,08,18,11,08,23.30
2016,08,18,11,09,23.30
2016,08,18,11,10,23.20
2016,08,18,11,11,23.20
2016,08,18,11,12,23.20
2016,08,18,11,13,23.20
2016,08,18,11,14,23.20
2016,08,18,11,15,23.20
2016,08,18,11,16,23.30
2016,08,18,11,17,23.30
2016,08,18,11,18,23.20
2016,08,18,11,19,23.20
2016,08,18,11,20,23.20
2016,08,18,11,21,23.20
2016,08,18,11,22,23.30
2016,08,18,11,23,23.30
2016,08,18,11,24,23.40
2016,08,18,11,25,23.50
2016,08,18,11,26,23.60
2016,08,18,11,27,23.60
2016,08,18,11,28,23.70
2016,08,18,11,29,23.80
2016,08,18,11,30,23.80
2016,08,18,11,31,23.90
2016,08,18,11,32,23.90
2016,08,18,11,33,24.00
2016,08,18,11,34,24.00
2016,08,18,11,35,24.00
2016,08,18,11,36,24.10
2016,08,18,11,37,24.10
2016,08,18,11,38,24.20
2016,08,18,11,39,24.30
2016,08,18,11,40,24.30
2016,08,18,11,41,24.30
2016,08,18,11,42,24.20
2016,08,18,11,43,24.30
2016,08,18,11,44,24.30
2016,08,18,11,45,24.30
2016,08,18,11,46,24.40
2016,08,18,11,47,24.40
2016,08,18,11,48,24.40
2016,08,18,11,49,24.40
2016,08,18,11,50,24.40
2016,08,18,11,51,24.50
2016,08,18,11,52,24.50
2016,08,18,11,53,24.60
2016,08,18,11,54,24.60
2016,08,18,11,55,24.70
2016,08,18,11,56,24.70
2016,08,18,11,57,24.70
2016,08,18,11,58,24.70
2016,08,18,11,59,24.70
2016,08,18,12,00,24.70
2016,08,18,12,01,24.70
2016,08,18,12,02,24.80
2016,08,18,12,03,24.80
2016,08,18,12,04,24.80
2016,08,18,12,05,24.90
2016,08,18,12,06,24.90
2016,08,18,12,07,24.90
2016,08,18,12,08,24.90
2016,08,18,12,09,24.90
2016,08,18,12,10,24.90
2016,08,18,12,11,24.90
2016,08,18,12,12,24.90
2016,08,18,12,13,24.90
2016,08,18,12,14,25.00
2016,08,18,12,15,25.10
2016,08,18,12,16,25.20
2016,08,18,12,17,25.30
2016,08,18,12,18,25.40
2016,08,18,12,19,25.40
2016,08,18,12,20,25.40
2016,08,18,12,21,25.40
2016,08,18,12,22,25.30
2016,08,18,12,23,25.30
2016,08,18,12,24,25.30
2016,08,18,12,25,25.40
2016,08,18,12,26,25.40
2016,08,18,12,27,25.40
2016,08,18,12,28,25.50
2016,08,18,12,29,25.50
2016,08,18,12,30,25.50
2016,08,18,12,31,25.60
2016,08,18,12,32,25.60
2016,08,18,12,33,25.70
2016,08,18,12,34,25.70
2016,08,18,12,35,25.70
2016,08,18,12,36,25.80
2016,08,18,12,37,25.80
2016,08,18,12,38,25.90
2016,08,18,12,39,25.90
2016,08,18,12,40,26.00
2016,08,18,12,41,26.10
2016,08,18,12,42,26.20
2016,08,18,12,43,26.30
2016,08,18,12,44,26.30
2016,08,18,12,45,26.40
2016,08,18,12,46,26.40
2016,08,18,12,47,26.40
2016,08,18,12,48,26.50
2016,08,18,12,49,26.50
2016,08,18,12,50,26.50
2016,08,18,12,51,26.50
2016,08,18,12,52,26.50
2016,08,18,12,53,26.60
2016,08,18,12,54,26.60
2016,08,18,12,55,26.70
2016,08,18,12,56,26.70
2016,08,18,12,57,26.80
2016,08,18,12,58,26.80
2016,08,18,12,59,26.80
2016,08,18,13,00,26.90
2016,08,18,13,01,27.00
2016,08,18,13,02,27.00
2016,08,18,13,03,27.10
2016,08,18,13,04,27.20
2016,08,18,13,05,27.20
2016,08,18,13,06,27.30
2016,08,18,13,07,27.40
2016,08,18,13,08,27.50
2016,08,18,13,09,27.60
2016,08,18,13,10,27.70
2016,08,18,13,11,27.70
2016,08,18,13,12,27.70
2016,08,18,13,13,27.70
2016,08,18,13,14,27.70
2016,08,18,13,15,27.70
2016,08,18,13,16,27.70
2016,08,18,13,17,27.60
2016,08,18,13,18,27.60
2016,08,18,13,19,27.60
2016,08,18,13,20,27.70
2016,08,18,13,21,27.70
2016,08,18,13,22,27.80
2016,08,18,13,23,27.80
2016,08,18,13,24,27.80
2016,08,18,13,25,27.70
2016,08,18,13,26,27.70
2016,08,18,13,27,27.70
2016,08,18,13,28,27.80
2016,08,18,13,29,27.80
2016,08,18,13,30,27.80
2016,08,18,13,31,27.90
2016,08,18,13,32,27.90
2016,08,18,13,33,27.90
2016,08,18,13,34,27.90
2016,08,18,13,35,27.90
2016,08,18,13,36,27.90
2016,08,18,13,37,28.00
2016,08,18,13,38,28.10
2016,08,18,13,39,28.10
2016,08,18,13,40,28.20
2016,08,18,13,41,28.30
2016,08,18,13,42,28.30
2016,08,18,13,43,28.40
2016,08,18,13,44,28.40
2016,08,18,13,45,28.40
2016,08,18,13,46,28.30
2016,08,18,13,47,28.30
2016,08,18,13,48,28.30
2016,08,18,13,49,28.30
2016,08,18,13,50,28.30
2016,08,18,13,51,28.30
2016,08,18,13,52,28.30
2016,08,18,13,53,28.40
2016,08,18,13,54,28.40
2016,08,18,13,55,28.40
2016,08,18,13,56,28.50
2016,08,18,13,57,28.50
2016,08,18,13,58,28.60
2016,08,18,13,59,28.50
2016,08,18,14,00,28.50
2016,08,18,14,01,28.40
2016,08,18,14,02,28.40
2016,08,18,14,03,28.40
2016,08,18,14,04,28.40
2016,08,18,14,05,28.40
2016,08,18,14,06,28.40
2016,08,18,14,07,28.40
2016,08,18,14,08,28.40
2016,08,18,14,09,28.40
2016,08,18,14,10,28.40
2016,08,18,14,11,28.40
2016,08,18,14,12,28.40
2016,08,18,14,13,28.40
2016,08,18,14,14,28.50
2016,08,18,14,15,28.60
2016,08,18,14,16,28.60
2016,08,18,14,17,28.70
2016,08,18,14,18,28.70
2016,08,18,14,19,28.80
2016,08,18,14,20,28.80
2016,08,18,14,21,28.90
2016,08,18,14,22,29.00
2016,08,18,14,23,29.10
2016,08,18,14,24,29.10
2016,08,18,14,25,29.20
2016,08,18,14,26,29.20
2016,08,18,14,27,29.20
2016,08,18,14,28,29.20
2016,08,18,14,29,29.20
2016,08,18,14,30,29.10
2016,08,18,14,31,29.10
2016,08,18,14,32,29.10
2016,08,18,14,33,29.10
2016,08,18,14,34,29.10
2016,08,18,14,35,29.10
2016,08,18,14,36,29.10
2016,08,18,14,37,29.10
2016,08,18,14,38,29.20
2016,08,18,14,39,29.20
2016,08,18,14,40,29.30
2016,08,18,14,41,29.30
2016,08,18,14,42,29.40
2016,08,18,14,43,29.40
2016,08,18,14,44,29.50
2016,08,18,14,45,29.60
2016,08,18,14,46,29.60
2016,08,18,14,47,29.60
2016,08,18,14,48,29.60
2016,08,18,14,49,29.60
2016,08,18,14,50,29.60
2016,08,18,14,51,29.60
2016,08,18,14,52,29.70
2016,08,18,14,53,29.80
2016,08,18,14,54,29.80
2016,08,18,14,55,29.90
2016,08,18,14,56,29.90
2016,08,18,14,57,29.90
2016,08,18,14,58,30.00
2016,08,18,14,59,30.00
2016,08,18,15,00,30.10
2016,08,18,15,01,30.10
2016,08,18,15,02,30.20
2016,08,18,15,03,30.30
2016,08,18,15,04,30.30
2016,08,18,15,05,30.40
2016,08,18,15,06,30.40
2016,08,18,15,07,30.40
2016,08,18,15,08,30.40
2016,08,18,15,09,30.40
2016,08,18,15,10,30.40
2016,08,18,15,11,30.40
2016,08,18,15,12,30.40
2016,08,18,15,13,30.30
2016,08,18,15,14,30.30
2016,08,18,15,15,30.20
2016,08,18,15,16,30.20
2016,08,18,15,17,30.20
2016,08,18,15,18,30.20
2016,08,18,15,19,30.20
2016,08,18,15,20,30.20
2016,08,18,15,21,30.20
2016,08,18,15,22,30.20
2016,08,18,15,23,30.20
2016,08,18,15,24,30.20
2016,08,18,15,25,30.20
2016,08,18,15,26,30.20
2016,08,18,15,27,30.20
2016,08,18,15,28,30.20
2016,08,18,15,29,30.20
2016,08,18,15,30,30.20
2016,08,18,15,31,30.20
2016,08,18,15,32,30.20
2016,08,18,15,33,30.20
2016,08,18,15,34,30.20
2016,08,18,15,35,30.20
2016,08,18,15,36,30.20
2016,08,18,15,37,30.20
2016,08,18,15,38,30.20
2016,08,18,15,39,30.30
2016,08,18,15,40,30.40
2016,08,18,15,41,30.50
2016,08,18,15,42,30.50
2016,08,18,15,43,30.60
2016,08,18,15,44,30.70
2016,08,18,15,45,30.70
2016,08,18,15,46,30.80
2016,08,18,15,47,30.80
2016,08,18,15,48,30.90
2016,08,18,15,49,30.90
2016,08,18,15,50,31.00
2016,08,18,15,51,31.10
2016,08,18,15,52,31.10
2016,08,18,15,53,31.20
2016,08,18,15,54,31.10
2016,08,18,15,55,31.00
2016,08,18,15,56,31.00
2016,08,18,15,57,31.10
2016,08,18,15,58,31.10
2016,08,18,15,59,31.10
2016,08,18,16,00,31.00
2016,08,18,16,01,30.90
2016,08,18,16,02,30.80
2016,08,18,16,03,30.70
2016,08,18,16,04,30.70
2016,08,18,16,05,30.60
2016,08,18,16,06,30.60
2016,08,18,16,07,30.70
2016,08,18,16,08,30.70
2016,08,18,16,09,30.70
2016,08,18,16,10,30.70
2016,08,18,16,11,30.80
2016,08,18,16,12,30.80
2016,08,18,16,13,30.80
2016,08,18,16,14,30.90
2016,08,18,16,15,31.00
2016,08,18,16,16,31.10
2016,08,18,16,17,31.20
2016,08,18,16,18,31.30
2016,08,18,16,19,31.30
2016,08,18,16,20,31.40
2016,08,18,16,21,31.40
2016,08,18,16,22,31.50
2016,08,18,16,23,31.50
2016,08,18,16,24,31.50
2016,08,18,16,25,31.50
2016,08,18,16,26,31.50
2016,08,18,16,27,31.40
2016,08,18,16,28,31.40
2016,08,18,16,29,31.40
2016,08,18,16,30,31.40
2016,08,18,16,31,31.30
2016,08,18,16,32,31.30
2016,08,18,16,33,31.20
2016,08,18,16,34,31.20
2016,08,18,16,35,31.10
2016,08,18,16,36,31.10
2016,08,18,16,37,31.10
2016,08,18,16,38,31.10
2016,08,18,16,39,31.20
2016,08,18,16,40,31.30
2016,08,18,16,41,31.20
2016,08,18,16,42,31.20
2016,08,18,16,43,31.20
2016,08,18,16,44,31.20
2016,08,18,16,45,31.20
2016,08,18,16,46,31.30
2016,08,18,16,47,31.30
2016,08,18,16,48,31.30
2016,08,18,16,49,31.30
2016,08,18,16,50,31.30
2016,08,18,16,51,31.30
2016,08,18,16,52,31.30
2016,08,18,16,53,31.20
2016,08,18,16,54,31.10
2016,08,18,16,55,31.10
2016,08,18,16,56,31.00
2016,08,18,16,57,30.90
2016,08,18,16,58,30.90
2016,08,18,16,59,30.90
2016,08,18,17,00,30.80
2016,08,18,17,01,30.80
2016,08,18,17,02,30.70
2016,08,18,17,03,30.70
2016,08,18,17,04,30.80
2016,08,18,17,05,30.80
2016,08,18,17,06,30.80
2016,08,18,17,07,30.80
2016,08,18,17,08,30.80
2016,08,18,17,09,30.80
2016,08,18,17,10,30.80
2016,08,18,17,11,30.70
2016,08,18,17,12,30.70
2016,08,18,17,13,30.70
2016,08,18,17,14,30.70
2016,08,18,17,15,30.70
2016,08,18,17,16,30.70
2016,08,18,17,17,30.70
2016,08,18,17,18,30.70
2016,08,18,17,19,30.80